sat.trackr.live / text

‹ back to catalog

STARLINK-37647

NORAD 69207 · 2026-114AB

PAYLOAD ACTIVE UNKNOWN

§ Identity

Operator
Country
US
Launch date
2026-05-25
Launch site
AFETR
Launch vehicle
Mass (kg)
RCS (m²)

Purposes: comms

External: N2YO · Heavens-Above · Gunter

§ Orbital elements

Epoch: 2026-09-19T22:40:38.535744Z

Period
93.85 min
Inclination
53.1581°
Eccentricity
0.0003915
Mean motion
15.34402795 rev/d
Perigee alt
460.0 km
Apogee alt
465.4 km
Semi-major
6,840.8 km
B*
4.5508e-4
RAAN
116.1226°
Arg perigee
15.3248°
Mean anomaly
344.7872°
Rev number
1,936

§ Raw data

STARLINK-376471 69207U 26114AB  26262.94489046  .00015033  00000+0  45508-3 0  99962 69207  53.1581 116.1226 0003915  15.3248 344.7872 15.34402795 19363

JSON: /api/v1/satellites/69207 · /tle

For live sub-satellite position, see the globe view (requires WebGL).

§ Visibility from observer

Set your observer location to see the next 7 days of passes ≥ 10°. The values pass through the URL so the page stays shareable.

No JS? Fill the form by hand. The geolocation button needs JavaScript.